+ View the NASA Portal
+ Center for Near-Earth Object Studies
IMPORTANT:
The SSD Announcement email list is now available. Major changes are coming in the near future, including possible hostname and/or URL changes. To be notified of such changes, subscribe to this email list.
Please visit
this page
for more details.
Don't show this message again
JPL Small-Body Database Browser
Search:
[
help
]
434186 (2002 XH83)
Classification:
Main-belt Asteroid
SPK-ID:
2434186
[
Ephemeris
|
Orbit Diagram
|
Orbital Elements
|
Mission Design
|
Physical Parameters
|
Discovery Circumstances
|
Close-Approach Data
]
[ show orbit diagram ]
Orbital Elements at Epoch 2458600.5 (2019-Apr-27.0) TDB
Reference:
JPL 16
(heliocentric ecliptic J2000)
Element
Value
Uncertainty (1-sigma)
Units
e
.3793465459597861
8.1738e-08
a
3.131684307594011
5.15e-08
au
q
1.943690682471758
2.6654e-07
au
i
19.33109422616748
2.1566e-05
deg
node
242.7267195458693
2.3e-05
deg
peri
253.2244075505371
4.253e-05
deg
M
319.8573408286921
3.3937e-05
deg
t
p
2458826.219473389455
(2019-Dec-08.71947339)
0.00019509
TDB
period
2024.255794152372
5.54
4.9932e-05
1.367e-07
d
yr
n
.1778431367418883
4.3869e-09
deg/d
Q
4.319677932716263
7.1036e-08
au
Orbit Determination Parameters
# obs. used (total)
108
data-arc span
5877 days (16.09 yr)
first obs. used
2002-12-01
last obs. used
2019-01-03
planetary ephem.
DE431
SB-pert. ephem.
SB431-N16
condition code
0
norm. resid. RMS
.49981
source
ORB
producer
Otto Matic
solution date
2019-Jul-14 01:33:35
Additional Information
Earth MOID
= 1.0525 au
Jupiter MOID
= 1.5848 au
T_jup
= 3.016
[ show covariance matrix ]
[
Ephemeris
|
Orbit Diagram
|
Orbital Elements
|
Mission Design
|
Physical Parameters
|
Discovery Circumstances
|
Close-Approach Data
]
Physical Parameter Table
Parameter
Symbol
Value
Units
Sigma
Reference
Notes
absolute magnitude
H
16.3
n/a
MPO460653
434186 (2002 XH83)
Discovered 2002-Dec-13 by NEAT at Palomar
Reference:
Last Updated:
2015-06-04
[ hide close-approach data ]
Close-Approach Data
...sorted by
Date/Time (TDB)
Date/Time (TDB)
Time Uncertainty
(days_HH:MM)
Body
Nominal Distance (au)
Minimum Distance (au)
Maximum Distance (au)
V-relative (km/s)
V-infinity (km/s)
JD (TDB)
Time Uncertainty (minutes)
Semi-major axis (km)
Semi-minor axis (km)
range-LOV angle (deg)
N-sigma
BP
Orbit Ref.
Reference
Modified
1949-Aug-26 10:08
00:03
Jupiter
1.72267376282223
1.72266744083066
1.72268008485317
6.15849056090222
6.07812674808426
2433154.922064952
2.77527490597143
599.531600515953
176.032356865744
-64.3665939392247
537479.264971266
T
16
CATAB v2.0e-lin.ifort 2019-Jul-14 01:33:48
2019-Jul-14 01:33
1951-Aug-05 09:42
00:07
Jupiter
1.87736624036471
1.87736192218954
1.87737055872331
4.18086042280057
4.07151592836089
2433863.904477126
6.73277319313896
1205.2651378419
100.722530046074
83.8277265398593
314925.622045978
T
16
CATAB v2.0e-lin.ifort 2019-Jul-14 01:33:48
2019-Jul-14 01:33
1960-Aug-23 13:28
00:03
Jupiter
1.66164784731997
1.66164321714607
1.66165247755422
4.92110998703914
4.8164122002523
2437170.061316913
3.33052939108934
613.331006869311
91.7604216945552
70.2309673308652
556330.232649504
T
16
CATAB v2.0e-lin.ifort 2019-Jul-14 01:33:48
2019-Jul-14 01:33
2044-Apr-17 18:59
00:03
Jupiter
1.60762717340821
1.60762393738813
1.60763040942784
5.23983129196709
5.13829515069651
2467723.290795129
2.78504391685803
215.944825648272
146.715258561988
76.9198579700791
508689.98839921
T
16
CATAB v2.0e-lin.ifort 2019-Jul-14 01:33:48
2019-Jul-14 01:33
2055-Feb-10 15:39
00:04
Jupiter
1.92603040053684
1.92602658604348
1.92603421506961
5.06779201439462
4.98025735367898
2471674.151868585
3.53222736175036
531.342627389462
76.4651162194514
71.8777702639892
615791.272636173
T
16
CATAB v2.0e-lin.ifort 2019-Jul-14 01:33:48
2019-Jul-14 01:33
2129-Dec-27 02:35
00:08
Jupiter
1.90141313829543
1.90140800986041
1.90141826712139
5.31490759255971
5.23042089244184
2499021.607807440
8.38749424778969
1599.83528712302
115.155648902472
82.5306124302429
505418.467514371
T
16
CATAB v2.0e-lin.ifort 2019-Jul-14 01:33:48
2019-Jul-14 01:33
2138-Nov-23 03:21
00:08
Jupiter
1.6373274172476
1.63732379177512
1.63733104281045
4.71949104116927
4.60857410982215
2502274.639617625
7.94535546918691
971.162785121853
122.501050124828
83.0271981656002
455780.570252129
T
16
CATAB v2.0e-lin.ifort 2019-Jul-14 01:33:48
2019-Jul-14 01:33
[
Ephemeris
|
Orbit Diagram
|
Orbital Elements
|
Mission Design
|
Physical Parameters
|
Discovery Circumstances
|
Close-Approach Data
]
2019-Dec-10 19:50 UT
(server date/time)
Site Manager:
Ryan S. Park
Webmaster
:
Alan B. Chamberlin